[[{"header":{"parameterUnit":"m.s-1","parameterCategory":1,"la1":30.2991,"la2":30.254,"lo1":-89.0895,"lo2":-89.0444,"dy":0.0017,"dx":0.0017,"nx":28,"ny":28,"refTime":"2024-03-26T09:00:00:Z","depth":0,"parameterNumber":2,"parameterNumberName":"U-component_of_WINDS"},"data":[0,0,0,0,0,0,0,0,0,0,0,0,0,0,0,0,0,0,0,0,0,0,0,0,0,0,0,0,0,0,0,0,0,0,0,0,0,0,0,0,0,0,0,0,0,0,0,0,0,0,0,0,0,0,0,0,0,0,-2.275,-2.2751,0,-2.2785,-2.2786,-2.2786,-2.2775,-2.2774,-2.2773,-2.2773,-2.2811,-2.2813,-2.2815,0,0,0,0,0,0,0,0,0,0,0,0,0,-2.2679,-2.268,-2.275,-2.2751,-2.2751,-2.2785,-2.2786,-2.2786,-2.2775,-2.2774,-2.2773,-2.2772,-2.2811,-2.2813,-2.2815,0,0,0,0,0,0,0,0,0,0,0,0,0,-2.2711,-2.2681,-2.275,-2.275,-2.275,-2.2785,-2.2786,-2.2786,-2.2775,-2.2774,-2.2773,-2.2772,-2.281,-2.2813,-2.2815,-2.2854,0,0,-2.2823,-2.2824,0,0,0,0,0,0,0,0,-2.271,-2.2714,-2.2749,-2.275,-2.275,-2.2775,-2.2775,-2.2809,-2.2776,-2.2766,-2.2773,-2.2771,-2.28,-2.2804,-2.2813,-2.2856,-2.2858,-2.2824,-2.2825,-2.2826,-2.2827,0,0,0,0,0,0,0,-2.2707,-2.2713,-2.2764,-2.275,-2.275,-2.2749,-2.2753,-2.2781,-2.2789,-2.2767,-2.2766,-2.277,-2.28,-2.281,-2.2814,-2.2858,-2.2823,-2.2826,-2.2827,-2.2828,-2.2937,-2.2938,0,0,0,0,0,0,-2.2704,-2.2711,-2.2763,-2.2765,-2.2727,-2.2751,-2.2755,-2.2768,-2.2789,-2.2791,-2.2771,-2.2769,-2.2806,-2.2811,-2.2815,-2.2862,-2.2826,-2.2829,-2.283,-2.2936,-2.2937,-2.2939,0,0,0,0,0,0,-2.2703,-2.2709,-2.2762,-2.2738,-2.2744,-2.2754,-2.2768,-2.2769,-2.2779,-2.2792,-2.2794,-2.2779,-2.2806,-2.2811,-2.2845,-2.2864,-2.283,-2.2832,-2.2934,-2.2936,-2.2938,-2.2957,0,0,0,0,0,0,-2.2701,-2.2709,-2.2722,-2.2738,-2.2746,-2.2789,-2.2769,-2.2771,-2.2783,-2.2781,-2.28,-2.2802,-2.2805,-2.2841,-2.2847,-2.2866,-2.2834,-2.2933,-2.2935,-2.2938,-2.2955,-2.2959,-2.2963,0,0,0,0,0,-2.2698,-2.2726,-2.2723,-2.2729,-2.2763,-2.279,-2.2795,-2.2797,-2.2785,-2.2799,-2.2808,-2.2802,-2.2861,-2.2844,-2.2852,-2.2872,-2.2931,-2.2934,-2.2937,-2.2953,-2.2958,-2.2963,0,0,0,0,0,0,-2.2712,-2.2728,-2.2724,-2.2758,-2.2773,-2.2788,-2.2806,-2.2803,-2.2822,-2.2819,-2.2822,-2.2827,-2.2861,-2.287,-2.2851,-2.2912,-2.2895,-2.2899,-2.2904,-2.2909,-2.2914,-2.291,-2.2836,0,0,0,0,0,-2.2719,-2.2739,-2.2753,-2.2782,-2.2789,-2.2797,-2.2809,-2.2809,-2.2825,-2.2832,-2.2843,-2.2859,-2.2882,-2.2896,-2.2918,-2.2957,-2.2961,-2.2975,-2.2979,-2.2983,-2.2986,-2.3009,-2.3015,-2.2949,-2.2949,-2.2949,0,0,-2.2734,-2.2745,-2.2758,-2.2785,-2.2796,-2.2818,-2.2802,-2.2826,-2.2843,-2.2836,-2.2867,-2.2877,-2.2896,-2.2932,-2.2949,-2.2941,-2.3006,-2.2986,-2.2989,-2.2991,-2.3012,-2.3019,-2.3024,-2.2951,-2.295,-2.295,0,0,-2.2772,-2.2782,-2.2807,-2.282,-2.2837,-2.2843,-2.2849,-2.2866,-2.2871,-2.2903,-2.2899,-2.292,-2.2958,-2.2972,-2.2985,-2.3031,-2.3026,-2.3038,-2.306,-2.3082,-2.3088,-2.3092,-2.3109,-2.3115,-2.3042,-2.3042,-2.3042,0,-2.2788,-2.2819,-2.2821,-2.2846,-2.2858,-2.2853,-2.288,-2.2892,-2.2916,-2.2926,-2.2917,-2.2966,-2.2978,-2.3018,-2.303,-2.304,-2.3048,-2.3035,-2.3087,-2.3091,-2.3096,-2.3112,-2.3118,-2.3043,-2.3043,-2.3043,-2.3043,0,-2.2839,-2.2861,-2.288,-2.2903,-2.2918,-2.2944,-2.2951,-2.2966,-2.2966,-2.2973,-2.3007,-2.3023,-2.3047,-2.3058,-2.3058,-2.3099,-2.3093,-2.3085,-2.3068,-2.3103,-2.3118,-2.3124,-2.3045,-2.3045,-2.3044,-2.3044,0,0,-2.2884,-2.2909,-2.2916,-2.2927,-2.2947,-2.2965,-2.2992,-2.3016,-2.3029,-2.3047,-2.307,-2.3104,-2.3097,-2.3111,-2.3114,-2.3133,-2.317,-2.3123,-2.3124,-2.3131,-2.3217,-2.3222,-2.3229,-2.3168,-2.3169,-2.317,-2.3215,0,-2.2923,-2.2968,-2.2972,-2.3013,-2.3034,-2.3031,-2.3055,-2.3071,-2.3079,-2.31,-2.3109,-2.3133,-2.3122,-2.3131,-2.315,-2.3161,-2.3187,-2.3158,-2.319,-2.3191,-2.3184,-2.3237,-2.3242,-2.3284,-2.3221,-2.3222,-2.3223,0,-2.2974,-2.2993,-2.3036,-2.3055,-2.3064,-2.3085,-2.3108,-2.3127,-2.3147,-2.3152,-2.3168,-2.3169,-2.3198,-2.3181,-2.3222,-2.3203,-2.3217,-2.3224,-2.3226,-2.3228,-2.3208,-2.324,-2.3297,-2.3304,-2.3233,-2.3232,-2.3231,0,-2.3003,-2.3039,-2.307,-2.308,-2.3102,-2.3117,-2.3128,-2.3146,-2.316,-2.3181,-2.3191,-2.3216,-2.3229,-2.3249,-2.3257,-2.3244,-2.3299,-2.3282,-2.3304,-2.3304,-2.3314,-2.3313,-2.3374,-2.3325,-2.3325,-2.3324,-2.3324,0,-2.3046,-2.3072,-2.3083,-2.3102,-2.3132,-2.3138,-2.3168,-2.3178,-2.3195,-2.3217,-2.3217,-2.3238,-2.3247,-2.327,-2.3277,-2.3311,-2.3317,-2.3322,-2.3324,-2.3322,-2.3321,-2.333,-2.3327,-2.3326,-2.3326,-2.3325,-2.3325,0,-2.3082,-2.309,-2.3123,-2.3143,-2.3148,-2.317,-2.3187,-2.3206,-2.3215,-2.3243,-2.325,-2.3265,-2.3292,-2.3302,-2.3336,-2.3341,-2.338,-2.3379,-2.3372,-2.3373,-2.3394,-2.3392,-2.3462,-2.3471,-2.3416,-2.3417,-2.3417,0,-2.3108,-2.3128,-2.315,-2.3164,-2.3175,-2.3198,-2.3213,-2.322,-2.3236,-2.3261,-2.3278,-2.3305,-2.3327,-2.3371,-2.3386,-2.3412,-2.3412,-2.3435,-2.3415,-2.3413,-2.3412,-2.341,-2.3413,-2.3438,-2.3438,-2.3439,-2.3439,0,-2.3154,-2.3157,-2.3178,-2.3201,-2.3219,-2.3238,-2.3257,-2.3269,-2.3279,-2.3298,-2.3325,-2.3342,-2.3377,-2.3405,-2.3432,-2.3445,-2.3444,-2.3445,-2.3452,-2.3449,-2.3445,-2.3447,-2.3381,-2.3443,-2.3443,-2.3442,-2.3442,-2.3442,-2.3186,-2.3204,-2.3222,-2.3246,-2.3261,-2.3279,-2.3298,-2.3309,-2.3332,-2.336,-2.3364,-2.3394,-2.3415,-2.3452,-2.3466,-2.3491,-2.3485,-2.3494,-2.3496,-2.3498,-2.35,-2.3442,-2.3496,-2.3496,-2.3496,-2.3496,-2.3496,0,-2.3231,-2.3243,-2.3265,-2.3291,-2.3311,-2.3308,-2.3329,-2.3346,-2.3372,-2.3391,-2.3413,-2.3446,-2.3473,-2.349,-2.3518,-2.3535,-2.3536,-2.3542,-2.354,-2.3544,-2.3503,-2.3495,-2.3541,-2.3541,-2.3541,-2.3541,-2.3541,-2.3541,-2.3257,-2.3288,-2.3294,-2.3333,-2.3346,-2.3374,-2.3387,-2.3404,-2.3419,-2.3455,-2.3478,-2.3489,-2.3508,-2.3538,-2.3563,-2.3568,-2.3578,-2.3585,-2.3589,-2.3551,-2.3546,-2.3542,-2.3534,-2.3587,-2.3587,-2.3627,-2.3628,-2.3628]},{"header":{"parameterUnit":"m.s-1","parameterCategory":1,"la1":30.2991,"la2":30.254,"lo1":-89.0895,"lo2":-89.0444,"dy":0.0017,"dx":0.0017,"nx":28,"ny":28,"refTime":"2024-03-26T09:00:00:Z","depth":0,"parameterNumber":3,"parameterNumberName":"V-component_of_WINDS"},"data":[0,0,0,0,0,0,0,0,0,0,0,0,0,0,0,0,0,0,0,0,0,0,0,0,0,0,0,0,0,0,0,0,0,0,0,0,0,0,0,0,0,0,0,0,0,0,0,0,0,0,0,0,0,0,0,0,0,0,4.5674,4.5674,0,4.5631,4.5631,4.563,4.5514,4.5512,4.5509,4.5507,4.5465,4.5466,4.5468,0,0,0,0,0,0,0,0,0,0,0,0,0,4.566,4.5661,4.5674,4.5674,4.5673,4.5631,4.5631,4.563,4.5515,4.5512,4.5509,4.5506,4.5465,4.5466,4.5468,0,0,0,0,0,0,0,0,0,0,0,0,0,4.5647,4.5661,4.5674,4.561,4.5604,4.5632,4.5631,4.563,4.5515,4.5511,4.5508,4.5504,4.5464,4.5466,4.5468,4.5554,0,0,4.5473,4.5474,0,0,0,0,0,0,0,0,4.5648,4.5648,4.562,4.5615,4.5608,4.5574,4.561,4.5605,4.5516,4.5549,4.5507,4.5502,4.5505,4.5503,4.5503,4.5552,4.5551,4.5474,4.5475,4.5476,4.5476,0,0,0,0,0,0,0,4.5649,4.5649,4.5657,4.562,4.5612,4.5585,4.5579,4.5609,4.5549,4.5546,4.5537,4.5534,4.5501,4.5502,4.5501,4.555,4.5474,4.5475,4.5476,4.5477,4.5674,4.5678,0,0,0,0,0,0,4.5659,4.565,4.5658,4.5656,4.5619,4.5589,4.5582,4.5589,4.5548,4.5538,4.5537,4.5529,4.55,4.5499,4.5499,4.5602,4.5476,4.5477,4.5478,4.567,4.5675,4.5679,0,0,0,0,0,0,4.5659,4.566,4.566,4.5651,4.5649,4.5593,4.5602,4.559,4.5591,4.5541,4.553,4.5549,4.5497,4.5497,4.5543,4.5599,4.5478,4.548,4.5665,4.5671,4.5677,4.5806,0,0,0,0,0,0,4.5659,4.5661,4.5692,4.5652,4.565,4.5703,4.5605,4.5592,4.5594,4.5583,4.5549,4.554,4.5494,4.5541,4.5545,4.5599,4.5481,4.566,4.5668,4.5675,4.5796,4.5816,4.5832,0,0,0,0,0,4.5659,4.5729,4.5694,4.5696,4.5687,4.5706,4.5705,4.565,4.5599,4.5631,4.56,4.5541,4.5592,4.5546,4.555,4.5606,4.5656,4.5666,4.5675,4.5788,4.5812,4.5832,0,0,0,0,0,0,4.5776,4.5723,4.5683,4.5743,4.573,4.5687,4.5725,4.5676,4.5678,4.5667,4.5599,4.5593,4.565,4.5631,4.5582,4.569,4.5615,4.5625,4.57,4.5722,4.574,4.5744,4.5483,0,0,0,0,0,4.5809,4.5829,4.5781,4.5838,4.5834,4.5781,4.5787,4.5747,4.5731,4.5725,4.5697,4.5685,4.5699,4.5709,4.5718,4.5793,4.5786,4.5833,4.5851,4.5866,4.5877,4.592,4.5942,4.571,4.571,4.571,0,0,4.5877,4.585,4.5866,4.5861,4.5847,4.5871,4.5777,4.5805,4.5823,4.5729,4.5772,4.5752,4.5734,4.5796,4.5822,4.5783,4.594,4.5878,4.589,4.5893,4.5932,4.5954,4.5974,4.5716,4.5715,4.5714,0,0,4.6014,4.5994,4.6042,4.603,4.601,4.5975,4.5987,4.5952,4.5935,4.5976,4.5909,4.5929,4.5952,4.5944,4.5943,4.6083,4.6031,4.6087,4.6182,4.6225,4.6243,4.6259,4.6313,4.6333,4.6097,4.6098,4.6098,0,4.6102,4.6134,4.6073,4.6107,4.6108,4.6025,4.6076,4.6067,4.6051,4.6055,4.6011,4.6042,4.6024,4.6086,4.6121,4.6121,4.6135,4.6092,4.6245,4.6261,4.6275,4.6326,4.6346,4.6105,4.6104,4.6104,4.6103,0,4.6245,4.6268,4.631,4.6298,4.6304,4.6345,4.6293,4.6307,4.6267,4.6237,4.6284,4.6259,4.6265,4.6276,4.6235,4.6333,4.6311,4.6257,4.618,4.6305,4.6352,4.6371,4.6116,4.6113,4.6111,4.6109,0,0,4.6453,4.641,4.6427,4.6423,4.6396,4.6414,4.6454,4.6459,4.6474,4.6467,4.6501,4.6524,4.6476,4.6476,4.6434,4.6472,4.6589,4.6414,4.6413,4.6451,4.6701,4.6744,4.6767,4.6554,4.6557,4.656,4.6704,0,4.6586,4.6651,4.66,4.6675,4.6698,4.6622,4.6657,4.6646,4.6621,4.6639,4.661,4.663,4.6562,4.6562,4.6596,4.6568,4.6639,4.6556,4.6588,4.659,4.6599,4.6791,4.6835,4.6972,4.6721,4.6724,4.6727,0,4.6749,4.6751,4.6829,4.6802,4.681,4.6842,4.6846,4.6863,4.685,4.6829,4.6831,4.6781,4.6821,4.6745,4.6801,4.6746,4.6756,4.6745,4.6749,4.6752,4.6668,4.6803,4.7014,4.7037,4.6754,4.6752,4.675,0,4.6899,4.6921,4.6972,4.697,4.6938,4.6964,4.6952,4.6935,4.6944,4.6947,4.6953,4.696,4.6966,4.6974,4.6929,4.6877,4.6994,4.6912,4.698,4.6982,4.701,4.701,4.723,4.7011,4.7011,4.7011,4.701,0,4.7054,4.7106,4.704,4.7071,4.7129,4.707,4.7129,4.7109,4.7096,4.7124,4.7058,4.7086,4.7023,4.7046,4.7011,4.7066,4.7067,4.7054,4.7045,4.7062,4.7065,4.707,4.7061,4.7016,4.7015,4.7014,4.7013,0,4.7232,4.7189,4.724,4.7207,4.72,4.7245,4.7217,4.7247,4.7217,4.7255,4.726,4.7215,4.7239,4.7195,4.7212,4.7189,4.7267,4.7241,4.7272,4.7266,4.7339,4.7334,4.7572,4.7603,4.7362,4.7364,4.7366,0,4.7336,4.7374,4.7346,4.7361,4.7353,4.7377,4.7386,4.7331,4.7343,4.7334,4.7366,4.7384,4.7397,4.7439,4.7409,4.7424,4.74,4.7482,4.7401,4.7419,4.7406,4.7406,4.7412,4.75,4.7503,4.7505,4.7507,0,4.7526,4.7503,4.7518,4.7528,4.7541,4.7545,4.7545,4.7561,4.7503,4.7521,4.7545,4.7555,4.7574,4.7595,4.7603,4.7592,4.7543,4.7533,4.755,4.757,4.7588,4.7584,4.7322,4.7528,4.7526,4.7524,4.7523,4.7522,4.7672,4.7705,4.7692,4.7712,4.7707,4.7709,4.7737,4.7712,4.7731,4.7743,4.771,4.7743,4.7734,4.7739,4.7735,4.7762,4.7725,4.775,4.7756,4.7764,4.7778,4.7581,4.7763,4.7762,4.7761,4.7761,4.776,0,4.7862,4.7851,4.787,4.7873,4.7891,4.7841,4.7839,4.7858,4.7888,4.7883,4.7897,4.7928,4.7949,4.7922,4.7939,4.7966,4.7944,4.7973,4.7972,4.7971,4.7807,4.7793,4.7991,4.7991,4.7991,4.7991,4.7991,4.799,4.7963,4.8018,4.7995,4.8047,4.8035,4.8068,4.8072,4.8076,4.8072,4.8109,4.8127,4.8109,4.8097,4.8113,4.8131,4.8123,4.8134,4.8172,4.8157,4.8004,4.7982,4.7961,4.7947,4.8174,4.8174,4.8318,4.832,4.8321]}]]